Dewpoint
59 65 70 71 71 72 73 73 73 73 73 73 73 73 73 73 73 73 73 73 73 73 72 72 72 72 71 70 71 71 71 71 71 71 70 70 70 70 69 70 69 66 70
60 66 69 69 71 72 72 73 73 73 73 73 73 73 73 73 73 73 73 73 72 73 71 71 72 72 71 71 71 71 71 70 70 70 70 69 69 69 69 69 69 68 69
63 67 69 69 71 72 72 73 73 73 73 73 73 73 73 73 73 73 72 72 72 72 71 71 71 72 71 71 70 70 70 70 69 69 69 64 66 69 69 69 69 69 69
64 68 69 69 71 72 72 73 73 73 73 73 73 73 73 73 73 73 72 72 72 72 72 71 71 71 71 70 70 70 70 69 69 68 62 63 64 68 68 68 68 68 69
64 67 68 69 71 71 72 72 73 73 73 73 73 73 73 73 73 72 72 71 72 72 71 71 70 71 70 69 69 69 69 68 67 65 60 63 62 66 67 68 68 68 67
63 65 69 69 70 71 71 72 73 73 72 72 72 73 73 73 73 72 71 71 70 70 71 71 71 70 69 68 68 68 67 66 65 57 60 62 62 67 67 67 67 67 67
64 66 70 69 70 71 71 72 72 72 72 72 72 72 72 72 71 71 70 70 70 70 70 71 70 69 68 68 68 67 66 66 60 58 61 63 65 67 67 66 66 67 66
67 69 70 70 70 70 71 71 71 71 71 71 71 72 72 71 70 70 69 69 69 69 70 70 69 68 68 68 67 66 65 65 60 59 60 62 66 66 66 65 65 66 65
68 69 71 71 70 69 69 70 69 69 70 70 70 70 71 70 69 69 69 69 67 68 68 69 69 67 67 67 66 65 64 65 61 61 60 62 66 64 64 63 62 63 64
67 68 69 70 70 70 70 68 68 68 69 69 70 69 68 68 68 68 68 67 67 68 68 68 67 67 66 66 65 64 64 64 60 60 60 62 65 64 63 62 62 62 61
65 65 67 68 69 69 69 69 68 68 68 68 69 68 66 69 67 68 66 66 67 67 67 67 67 66 65 64 64 64 63 60 60 59 61 64 65 63 62 62 61 61 60
63 64 64 67 67 68 66 69 69 69 69 69 69 68 68 67 67 64 65 66 66 66 66 66 66 65 64 64 64 64 64 61 59 59 61 64 64 62 62 61 60 60 59
59 61 63 67 68 68 66 65 68 70 69 70 69 69 68 68 68 67 67 64 64 65 62 66 66 65 64 64 63 64 64 61 58 57 61 63 63 62 62 59 59 60 60
57 60 64 66 67 68 65 65 65 68 70 69 69 70 68 67 67 67 67 63 63 62 64 64 65 65 64 63 63 63 62 59 55 57 60 62 63 61 61 60 59 60 60
56 60 63 66 68 67 67 64 64 66 68 69 68 69 69 66 66 66 66 66 63 64 65 64 65 63 62 62 62 61 59 57 56 54 58 62 62 62 61 60 60 60 60
54 58 63 65 68 67 67 67 66 66 65 67 68 67 68 67 66 66 66 64 64 64 65 65 64 63 62 61 60 59 58 57 57 55 56 58 61 62 61 61 60 59 60
51 55 61 65 67 67 66 66 65 64 65 66 66 66 67 67 66 66 66 65 64 65 65 65 63 63 62 60 59 58 57 57 56 55 56 56 58 60 60 61 60 59 59
46 50 57 59 64 66 65 64 63 64 65 65 65 65 66 65 66 65 65 65 65 65 64 62 60 59 59 59 59 57 56 56 55 54 56 57 56 55 59 60 60 60 60
40 46 52 59 62 64 65 64 64 65 65 65 64 64 64 64 65 64 64 64 64 62 61 60 59 58 58 58 58 56 56 55 54 51 53 54 56 56 56 59 59 60 60
35 41 47 54 60 62 65 65 63 64 64 64 64 63 64 64 63 64 64 64 62 59 58 58 58 58 57 57 57 55 57 54 54 53 52 53 54 56 56 56 56 55 58
45 46 46 52 59 60 63 62 61 62 62 62 64 63 63 63 64 63 63 63 61 58 57 58 57 56 57 58 57 57 56 55 54 54 53 51 53 54 56 55 53 51 55
49 50 51 54 58 60 61 61 61 62 62 62 63 64 63 63 63 62 62 62 60 58 58 58 57 56 56 57 55 54 52 53 55 54 52 52 55 53 53 54 54 53 53
48 51 51 54 57 60 61 61 61 62 62 62 62 62 62 62 62 62 62 61 60 59 57 57 57 55 54 56 57 54 50 49 52 54 53 50 56 53 52 53 54 53 54
49 51 53 54 56 58 60 60 60 59 58 59 60 61 62 62 62 62 62 61 59 59 57 56 57 56 55 55 56 57 54 52 49 50 53 51 52 53 53 51 52 53 53
48 54 55 55 56 58 59 60 60 59 58 59 59 59 60 62 62 62 60 58 57 57 57 57 57 56 56 55 55 54 54 53 52 49 48 48 49 50 51 52 51 52 53
48 52 56 56 56 58 59 60 60 60 58 57 57 58 58 60 61 61 59 58 57 57 56 57 57 56 56 56 56 55 54 52 51 49 47 49 47 49 49 51 53 52 52
Lifted_Index
-3 -3 -3 -3 -3 -4 -4 -5 -5 -5 -5 -5 -4 -4 -4 -5 -5 -5 -5 -5 -5 -5 -5 -4 -4 -4 -5 -5 -5 -5 -5 -4 -4 -4 -4 -3 -3 -2 -2 -2 -2 -2 -2
-3 -3 -3 -3 -3 -4 -4 -5 -5 -5 -5 -5 -5 -5 -5 -5 -5 -5 -5 -5 -5 -5 -5 -5 -5 -5 -5 -5 -5 -5 -5 -4 -4 -4 -4 -3 -3 -2 -2 -2 -2 -2 -2
-4 -4 -3 -3 -3 -4 -4 -5 -5 -5 -5 -5 -5 -5 -5 -5 -6 -6 -6 -6 -6 -6 -6 -5 -6 -5 -5 -5 -5 -5 -4 -4 -4 -3 -3 -3 -2 -2 -2 -2 -2 -2 -2
-4 -4 -4 -3 -3 -4 -4 -5 -5 -5 -5 -5 -5 -5 -5 -6 -6 -6 -6 -6 -6 -6 -6 -6 -6 -6 -6 -5 -5 -4 -4 -4 -3 -3 -2 -2 -2 -2 -2 -2 -2 -2 -2
-4 -5 -4 -4 -4 -4 -4 -5 -5 -6 -6 -5 -5 -6 -6 -6 -6 -6 -6 -6 -6 -7 -7 -7 -6 -6 -6 -5 -4 -4 -4 -3 -2 -2 -1 -1 -2 -2 -2 -2 -2 -1 -1
-4 -4 -4 -4 -4 -4 -4 -5 -5 -6 -6 -6 -6 -6 -6 -6 -6 -6 -6 -6 -6 -6 -6 -6 -6 -6 -5 -5 -4 -4 -3 -2 -2 -1 -1 -1 -1 -2 -2 -1 -1 -1 -1
-4 -4 -5 -4 -4 -4 -4 -5 -5 -5 -5 -5 -6 -6 -6 -6 -6 -6 -6 -6 -6 -6 -6 -6 -6 -5 -5 -4 -4 -3 -2 -2 -2 -1 -1 -1 -1 -1 -1 -1 -1 -1 -1
-5 -5 -5 -5 -4 -4 -4 -5 -5 -5 -5 -5 -6 -6 -6 -6 -5 -5 -5 -5 -5 -5 -5 -6 -5 -5 -4 -4 -3 -3 -2 -2 -2 -2 -1 -1 -1 -1 -0 -0 0 0 0
-5 -5 -5 -5 -5 -4 -4 -4 -4 -4 -5 -5 -5 -5 -6 -5 -5 -5 -5 -4 -4 -4 -5 -5 -5 -4 -3 -3 -3 -2 -2 -2 -2 -2 -1 -1 -1 -0 0 1 1 1 1
-5 -5 -5 -5 -5 -5 -5 -4 -4 -4 -4 -5 -5 -5 -5 -5 -5 -4 -4 -4 -3 -3 -4 -4 -4 -3 -3 -2 -2 -2 -2 -2 -2 -2 -1 -1 -1 0 1 2 2 2 2
-5 -5 -5 -5 -5 -5 -5 -5 -5 -4 -4 -4 -5 -5 -4 -4 -4 -4 -4 -3 -3 -3 -3 -3 -3 -3 -2 -2 -1 -1 -2 -2 -2 -1 -1 -1 -0 0 1 2 2 2 2
-5 -5 -5 -5 -5 -5 -5 -5 -5 -5 -5 -4 -4 -4 -4 -4 -4 -4 -4 -3 -3 -2 -2 -2 -2 -2 -1 -1 -0 -1 -1 -2 -2 -1 -1 -1 -0 1 1 2 3 3 3
-4 -4 -5 -5 -5 -5 -5 -5 -5 -5 -5 -5 -5 -4 -4 -4 -4 -4 -4 -3 -2 -2 -2 -2 -2 -1 -1 -0 0 -0 -1 -1 -1 -1 -0 -0 0 1 2 2 3 3 3
-4 -4 -5 -5 -5 -5 -5 -5 -5 -5 -5 -5 -5 -4 -4 -4 -4 -4 -3 -3 -2 -2 -2 -2 -2 -1 -0 0 0 0 0 -0 -0 0 0 0 0 1 2 2 3 3 3
-4 -4 -5 -5 -5 -5 -5 -4 -4 -4 -5 -4 -4 -4 -4 -4 -4 -3 -3 -3 -2 -2 -2 -2 -2 -1 0 1 1 1 1 1 1 1 1 1 1 1 2 2 2 3 3
-3 -4 -4 -5 -5 -5 -5 -4 -4 -4 -4 -4 -4 -4 -4 -4 -4 -3 -3 -2 -2 -2 -2 -2 -1 -0 0 1 1 1 1 1 1 1 1 1 1 1 2 2 2 3 3
-2 -2 -3 -4 -5 -5 -5 -4 -3 -3 -3 -3 -3 -3 -4 -4 -3 -3 -3 -2 -2 -2 -1 -1 -0 0 1 1 2 2 2 1 1 2 2 2 2 2 2 2 3 3 3
0 -1 -2 -3 -4 -5 -5 -4 -3 -2 -3 -3 -3 -3 -3 -3 -3 -3 -2 -2 -1 -1 -0 -0 1 1 1 1 2 2 2 2 2 3 2 2 2 2 3 3 3 3 3
3 2 0 -2 -3 -4 -4 -4 -2 -2 -2 -2 -2 -2 -2 -2 -2 -2 -2 -1 -1 0 0 1 1 2 2 2 2 2 2 2 3 3 3 3 3 3 3 3 4 4 4
4 3 2 -0 -2 -3 -4 -3 -2 -2 -2 -2 -2 -2 -2 -2 -2 -1 -1 -1 -0 0 1 1 2 2 2 3 3 3 3 3 3 4 4 4 3 3 3 4 4 5 5
4 4 3 1 -1 -2 -3 -3 -2 -2 -2 -2 -2 -2 -1 -1 -1 -1 -1 -0 0 1 1 2 2 3 3 3 4 4 4 4 4 4 4 4 4 4 4 4 4 5 5
3 3 2 1 -1 -2 -2 -2 -2 -2 -2 -1 -1 -1 -1 -1 -0 -0 -0 0 1 1 1 2 2 3 3 4 4 4 4 4 4 4 4 4 4 4 4 4 4 5 5
3 2 2 1 -0 -1 -2 -2 -2 -2 -1 -1 -1 -1 -1 -0 -0 0 0 1 1 1 2 2 2 3 4 4 4 4 5 5 4 4 4 4 4 4 4 4 4 4 4
3 2 2 1 0 -1 -1 -2 -2 -2 -2 -1 -1 -1 -0 -0 0 0 1 1 1 2 2 2 3 4 4 5 4 4 5 4 4 4 4 4 4 4 4 4 4 4 4
3 2 2 1 1 0 -1 -2 -2 -3 -2 -2 -1 -0 0 0 0 1 1 1 2 2 2 2 3 4 5 5 5 5 4 4 4 4 5 5 5 5 5 5 5 4 4
3 2 2 1 1 1 -1 -2 -3 -3 -3 -2 -1 -0 1 1 1 1 1 2 2 2 2 2 3 4 5 5 5 5 4 4 5 5 5 6 6 6 5 5 5 4 4